Погода в Айдынджике

Турция     36°09′23″N   33°20′06″E
темп.,
°C
ветер,
м/с
пор.,
м/с
влажн.,
%
обл.,
%
осадки,
мм/ч
давл.,
гПа
погр.,
м
13 апреля, вт
вт1300:00+6ссз32500 0.0 102136
03:00+6ссз32513 0.0 102134
06:00+5ссз32525 0.0 102022
09:00+10всв11405 0.0 1020598
12:00+13ю42425 0.0 1020934
15:00+13ю43487 0.0 1019925
18:00+12ю21655 0.0 1019559
21:00+9ссв11842 0.0 102022
14 апреля, ср
ср1400:00+9сз118097 0.0 102015
03:00+8юз118572 0.0 101923
06:00+7з118730 0.0 102020
09:00+11ююз216990 0.0 1021476
12:00+14ю436424 0.0 1020846
15:00+14ю437264 0.0 1018685
18:00+12ююз227722 0.0 1018459
21:00+10сз118492 0.0 101925
15 апреля, чт
чт1500:00+10всв0082100 0.0 101820
03:00+10ю0179100 0.0 101720
06:00+8юз1183100 0.0 101820
09:00+13ю21566 0.0 1018386
12:00+16ю435519 0.0 1017653
15:00+17ююз435519 0.0 1016646
18:00+15ююз22600 0.0 1016327
21:00+13зсз11688 0.0 101612
16 апреля, пт
пт1600:00+12зсз1158100 0.0 101512
03:00+11зсз1252100 0.0 101515
06:00+10сз1149100 0.0 101419
09:00+14ю1142100 0.0 1015261
12:00+17ююз3348100 0.0 1015578
15:00+17ю3254100 0.0 1015518
18:00+16ююз22575 0.0 1014341
21:00+12зсз117511 0.0 101513
17 апреля, сб
сб1700:00+12сз1169100 0.0 101511
03:00+12св1158100 0.0 101411
06:00+11св115699 0.0 101411
09:00+16юв103896 0.0 1016271
12:00+19ю2136100 0.0 1015562
15:00+18ююз4345100 0.0 1015384
18:00+18вюв1046100 0.0 1015194
21:00+15ююз1159100 0.0 101611